Year,Month,Day,Hour,Minute,Value (Times are PST for windspeed in km/hr)
2015,08,28,00,00,4.00
2015,08,28,00,01,7.50
2015,08,28,00,02,12.70
2015,08,28,00,03,8.90
2015,08,28,00,04,10.10
2015,08,28,00,05,9.60
2015,08,28,00,06,3.20
2015,08,28,00,07,7.10
2015,08,28,00,08,8.50
2015,08,28,00,09,9.50
2015,08,28,00,10,3.90
2015,08,28,00,11,8.00
2015,08,28,00,12,5.80
2015,08,28,00,13,8.60
2015,08,28,00,14,9.70
2015,08,28,00,15,10.50
2015,08,28,00,16,13.10
2015,08,28,00,17,4.20
2015,08,28,00,18,4.70
2015,08,28,00,19,10.20
2015,08,28,00,20,7.10
2015,08,28,00,21,9.10
2015,08,28,06,04,8.30
2015,08,28,06,05,2.50
2015,08,28,06,06,6.40
2015,08,28,06,07,6.80
2015,08,28,06,08,5.60
2015,08,28,06,09,4.70
2015,08,28,06,10,1.00
2015,08,28,06,11,6.10
2015,08,28,06,12,8.70
2015,08,28,06,13,9.00
2015,08,28,06,14,7.10
2015,08,28,06,15,8.10
2015,08,28,06,16,3.10
2015,08,28,06,17,1.40
2015,08,28,06,18,5.50
2015,08,28,06,19,1.00
2015,08,28,06,20,0.10
2015,08,28,06,21,4.30
2015,08,28,06,22,4.30
2015,08,28,06,23,4.70
2015,08,28,06,24,0.80
2015,08,28,06,25,0.80
2015,08,28,06,26,1.30
2015,08,28,06,27,6.80
2015,08,28,06,28,6.40
2015,08,28,06,29,8.50
2015,08,28,06,30,5.30
2015,08,28,06,31,0.60
2015,08,28,06,32,4.70
2015,08,28,06,33,7.00
2015,08,28,06,34,5.90
2015,08,28,06,35,2.80
2015,08,28,06,36,4.50
2015,08,28,06,37,2.40
2015,08,28,06,38,1.80
2015,08,28,06,39,6.80
2015,08,28,06,40,7.50
2015,08,28,06,41,2.20
2015,08,28,06,42,0.00
2015,08,28,06,43,4.20
2015,08,28,06,44,6.00
2015,08,28,06,45,7.20
2015,08,28,06,46,4.80
2015,08,28,06,47,4.90
2015,08,28,06,48,9.10
2015,08,28,06,49,7.00
2015,08,28,06,50,5.80
2015,08,28,06,51,7.30
2015,08,28,06,52,6.40
2015,08,28,06,53,10.30
2015,08,28,06,54,7.70
2015,08,28,06,55,8.50
2015,08,28,06,56,6.80
2015,08,28,06,57,7.20
2015,08,28,06,58,3.30
2015,08,28,06,59,4.20
2015,08,28,07,00,5.30
2015,08,28,07,01,8.10
2015,08,28,07,02,4.60
2015,08,28,07,03,3.50
2015,08,28,07,04,3.10
2015,08,28,07,05,4.60
2015,08,28,07,06,5.50
2015,08,28,07,07,1.30
2015,08,28,07,08,4.90
2015,08,28,07,09,6.40
2015,08,28,07,10,6.80
2015,08,28,07,11,10.00
2015,08,28,07,12,11.30
2015,08,28,07,13,5.10
2015,08,28,07,14,2.50
2015,08,28,07,15,7.60
2015,08,28,07,16,6.50
2015,08,28,07,17,10.90
2015,08,28,07,18,8.70
2015,08,28,07,19,4.30
2015,08,28,07,20,2.40
2015,08,28,07,21,8.50
2015,08,28,07,22,5.50
2015,08,28,07,23,7.20
2015,08,28,07,24,4.70
2015,08,28,07,25,6.50
2015,08,28,07,26,2.40
2015,08,28,07,27,3.20
2015,08,28,07,28,5.60
2015,08,28,07,29,4.30
2015,08,28,07,30,10.10
2015,08,28,07,31,6.40
2015,08,28,07,32,2.60
2015,08,28,07,33,4.80
2015,08,28,07,34,6.50
2015,08,28,07,35,5.90
2015,08,28,07,36,4.30
2015,08,28,07,37,5.60
2015,08,28,07,38,4.70
2015,08,28,07,39,5.40
2015,08,28,07,40,7.20
2015,08,28,07,41,6.30
2015,08,28,07,42,11.50
2015,08,28,07,43,6.60
2015,08,28,07,44,7.20
2015,08,28,07,45,13.20
2015,08,28,07,46,10.50
2015,08,28,07,47,10.40
2015,08,28,07,48,6.90
2015,08,28,07,49,14.60
2015,08,28,07,50,16.20
2015,08,28,07,51,8.40
2015,08,28,07,52,8.20
2015,08,28,07,53,7.20
2015,08,28,07,54,7.40
2015,08,28,07,55,7.10
2015,08,28,07,56,6.60
2015,08,28,07,57,10.10
2015,08,28,07,58,7.70
2015,08,28,07,59,7.00
2015,08,28,08,00,6.70
2015,08,28,08,01,5.60
2015,08,28,08,02,6.90
2015,08,28,08,03,8.80
2015,08,28,08,04,14.40
2015,08,28,08,05,10.20
2015,08,28,08,06,12.10
2015,08,28,08,07,6.50
2015,08,28,08,08,10.70
2015,08,28,08,09,8.00
2015,08,28,08,10,6.00
2015,08,28,08,11,6.70
2015,08,28,08,12,8.40
2015,08,28,08,13,9.10
2015,08,28,08,14,0.20
2015,08,28,08,15,6.60
2015,08,28,08,16,7.80
2015,08,28,08,17,12.10
2015,08,28,08,18,8.10
2015,08,28,08,19,8.60
2015,08,28,08,20,9.90
2015,08,28,08,21,14.90
2015,08,28,08,22,5.20
2015,08,28,08,23,13.90
2015,08,28,08,24,9.00
2015,08,28,08,25,11.90
2015,08,28,08,26,8.10
2015,08,28,08,27,13.80
2015,08,28,08,28,10.00
2015,08,28,08,29,3.70
2015,08,28,08,30,9.70
2015,08,28,08,31,9.10
2015,08,28,08,32,5.10
2015,08,28,08,33,2.00
2015,08,28,08,34,13.20
2015,08,28,08,35,11.80
2015,08,28,08,36,8.20
2015,08,28,08,37,2.90
2015,08,28,08,38,4.50
2015,08,28,08,39,13.70
2015,08,28,08,40,19.40
2015,08,28,08,41,8.60
2015,08,28,08,42,10.60
2015,08,28,08,43,8.00
2015,08,28,08,44,5.50
2015,08,28,08,45,10.40
2015,08,28,08,46,11.00
2015,08,28,08,47,12.40
2015,08,28,08,48,11.50
2015,08,28,08,49,11.60
2015,08,28,08,50,10.50
2015,08,28,08,51,8.00
2015,08,28,08,52,10.00
2015,08,28,08,53,11.50
2015,08,28,08,54,2.80
2015,08,28,08,55,4.20
2015,08,28,08,56,8.00
2015,08,28,08,57,9.70
2015,08,28,08,58,9.70
2015,08,28,08,59,9.20
2015,08,28,09,00,12.10
2015,08,28,09,01,8.10
2015,08,28,09,02,7.20
2015,08,28,09,03,12.00
2015,08,28,09,04,8.00
2015,08,28,09,05,10.80
2015,08,28,09,06,11.60
2015,08,28,09,07,12.60
2015,08,28,09,08,8.60
2015,08,28,09,09,5.80
2015,08,28,09,10,10.10
2015,08,28,09,11,8.50
2015,08,28,09,12,10.30
2015,08,28,09,13,7.80
2015,08,28,09,14,12.70
2015,08,28,09,15,1.00
2015,08,28,09,16,7.60
2015,08,28,09,17,10.20
2015,08,28,09,18,14.30
2015,08,28,09,19,11.20
2015,08,28,09,20,13.00
2015,08,28,09,21,8.70
2015,08,28,09,22,3.20
2015,08,28,09,23,3.50
2015,08,28,09,24,6.60
2015,08,28,09,25,7.10
2015,08,28,09,26,15.10
2015,08,28,09,27,10.90
2015,08,28,09,28,13.20
2015,08,28,09,29,8.00
2015,08,28,09,30,11.80
2015,08,28,09,31,9.10
2015,08,28,09,32,13.40
2015,08,28,09,33,14.30
2015,08,28,09,34,12.60
2015,08,28,09,35,12.00
2015,08,28,09,36,12.60
2015,08,28,09,37,13.60
2015,08,28,09,38,13.00
2015,08,28,09,39,14.20
2015,08,28,09,40,9.30
2015,08,28,09,41,13.80
2015,08,28,09,42,18.80
2015,08,28,09,43,15.90
2015,08,28,09,44,13.90
2015,08,28,09,45,8.90
2015,08,28,09,46,17.60
2015,08,28,09,47,12.40
2015,08,28,09,48,10.10
2015,08,28,09,49,8.70
2015,08,28,09,50,8.30
2015,08,28,09,51,10.60
2015,08,28,09,52,9.80
2015,08,28,09,53,6.80
2015,08,28,09,54,7.10
2015,08,28,09,55,5.70
2015,08,28,09,56,12.60
2015,08,28,09,57,17.50
2015,08,28,09,58,10.60
2015,08,28,09,59,9.70
2015,08,28,10,00,11.20
2015,08,28,10,01,16.70
2015,08,28,10,02,10.50
2015,08,28,10,03,7.40
2015,08,28,10,04,15.70
2015,08,28,10,05,17.40
2015,08,28,10,06,12.30
2015,08,28,10,07,9.20
2015,08,28,10,08,9.30
2015,08,28,10,09,10.70
2015,08,28,10,10,8.50
2015,08,28,10,11,9.80
2015,08,28,10,12,11.40
2015,08,28,10,13,10.80
2015,08,28,10,14,14.00
2015,08,28,10,15,4.50
2015,08,28,10,16,3.50
2015,08,28,10,17,7.70
2015,08,28,10,18,7.90
2015,08,28,10,19,13.00
2015,08,28,10,20,13.00
2015,08,28,10,21,7.20
2015,08,28,10,22,13.00
2015,08,28,10,23,14.90
2015,08,28,10,24,11.00
2015,08,28,10,25,10.10
2015,08,28,10,26,8.70
2015,08,28,10,27,3.00
2015,08,28,10,28,7.20
2015,08,28,10,29,6.50
2015,08,28,10,30,12.40
2015,08,28,10,31,6.20
2015,08,28,10,32,15.80
2015,08,28,10,33,13.90
2015,08,28,10,34,7.00
2015,08,28,10,35,7.20
2015,08,28,10,36,12.70
2015,08,28,10,37,10.90
2015,08,28,10,38,10.40
2015,08,28,10,39,12.30
2015,08,28,10,40,5.60
2015,08,28,10,41,6.40
2015,08,28,10,42,8.00
2015,08,28,10,43,8.40
2015,08,28,10,44,9.90
2015,08,28,10,45,8.70
2015,08,28,10,46,0.20
2015,08,28,10,47,6.80
2015,08,28,10,48,12.90
2015,08,28,10,49,8.60
2015,08,28,10,50,13.40
2015,08,28,10,51,14.10
2015,08,28,10,52,17.80
2015,08,28,10,53,16.00
2015,08,28,10,54,11.80
2015,08,28,10,55,9.40
2015,08,28,10,56,12.30
2015,08,28,10,57,12.30
2015,08,28,10,58,7.80
2015,08,28,10,59,4.80
2015,08,28,11,00,9.50
2015,08,28,11,01,7.30
2015,08,28,11,02,9.90
2015,08,28,11,03,10.60
2015,08,28,11,04,12.10
2015,08,28,11,05,10.40
2015,08,28,11,06,6.80
2015,08,28,11,07,11.00
2015,08,28,11,08,7.50
2015,08,28,11,09,6.60
2015,08,28,11,10,8.00
2015,08,28,11,11,9.30
2015,08,28,11,12,7.10
2015,08,28,11,13,6.90
2015,08,28,11,14,5.60
2015,08,28,11,15,3.50
2015,08,28,11,16,12.20
2015,08,28,11,17,8.10
2015,08,28,11,18,7.70
2015,08,28,11,19,12.50
2015,08,28,11,20,8.50
2015,08,28,11,21,12.20
2015,08,28,11,22,8.50
2015,08,28,11,23,10.10
2015,08,28,11,24,9.40
2015,08,28,11,25,9.20
2015,08,28,11,26,11.60
2015,08,28,11,27,12.00
2015,08,28,11,28,9.50
2015,08,28,11,29,8.00
2015,08,28,11,30,8.00
2015,08,28,11,31,12.80
2015,08,28,11,32,13.60
2015,08,28,11,33,4.40
2015,08,28,11,34,6.70
2015,08,28,11,35,6.30
2015,08,28,11,36,10.20
2015,08,28,11,37,7.50
2015,08,28,11,38,12.40
2015,08,28,11,39,15.90
2015,08,28,11,40,8.30
2015,08,28,11,41,4.90
2015,08,28,11,42,5.50
2015,08,28,11,43,10.80
2015,08,28,11,44,10.00
2015,08,28,11,45,9.70
2015,08,28,11,46,14.00
2015,08,28,11,47,9.70
2015,08,28,11,48,13.70
2015,08,28,11,49,11.40
2015,08,28,11,50,8.30
2015,08,28,11,51,7.40
2015,08,28,11,52,8.30
2015,08,28,11,53,6.10
2015,08,28,11,54,6.20
2015,08,28,11,55,16.40
2015,08,28,11,56,16.10
2015,08,28,11,57,14.60
2015,08,28,11,58,13.90
2015,08,28,11,59,15.90
2015,08,28,12,00,10.70
2015,08,28,12,01,15.40
2015,08,28,12,02,12.30
2015,08,28,12,03,12.70
2015,08,28,12,04,10.80
2015,08,28,12,05,5.60
2015,08,28,12,06,6.20
2015,08,28,12,07,7.30
2015,08,28,12,08,7.70
2015,08,28,12,09,1.20
2015,08,28,12,10,7.00
2015,08,28,12,11,6.10
2015,08,28,12,12,11.90
2015,08,28,12,13,9.00
2015,08,28,12,14,8.10
2015,08,28,12,15,11.40
2015,08,28,12,16,10.30
2015,08,28,12,17,8.30
2015,08,28,12,18,9.70
2015,08,28,12,19,12.30
2015,08,28,12,20,10.80
2015,08,28,12,21,12.40
2015,08,28,12,22,7.50
2015,08,28,12,23,8.00
2015,08,28,12,24,1.70
2015,08,28,12,25,9.80
2015,08,28,12,26,6.70
2015,08,28,12,27,10.30
2015,08,28,12,28,9.40
2015,08,28,12,29,10.60
2015,08,28,12,30,11.80
2015,08,28,12,31,8.40
2015,08,28,12,32,14.60
2015,08,28,12,33,14.00
2015,08,28,12,34,15.40
2015,08,28,12,35,13.70
2015,08,28,12,36,18.70
2015,08,28,12,37,18.40
2015,08,28,12,38,15.10
2015,08,28,12,39,15.90
2015,08,28,12,40,7.80
2015,08,28,12,41,10.40
2015,08,28,12,42,6.80
2015,08,28,12,43,3.40
2015,08,28,12,44,5.10
2015,08,28,12,45,17.30
2015,08,28,12,46,13.80
2015,08,28,12,47,9.70
2015,08,28,12,48,10.20
2015,08,28,12,49,12.60
2015,08,28,12,50,8.70
2015,08,28,12,51,12.00
2015,08,28,12,52,11.30
2015,08,28,12,53,8.90
2015,08,28,12,54,7.30
2015,08,28,12,55,10.80
2015,08,28,12,56,8.70
2015,08,28,12,57,7.20
2015,08,28,12,58,11.80
2015,08,28,12,59,14.40
2015,08,28,13,00,12.90
2015,08,28,13,01,13.50
2015,08,28,13,02,11.60
2015,08,28,13,03,10.90
2015,08,28,13,04,8.50
2015,08,28,13,05,10.10
2015,08,28,13,06,12.20
2015,08,28,13,07,6.00
2015,08,28,13,08,13.00
2015,08,28,13,09,14.10
2015,08,28,13,10,19.60
2015,08,28,13,11,10.30
2015,08,28,13,12,12.90
2015,08,28,13,13,12.30
2015,08,28,13,14,14.80
2015,08,28,13,15,12.90
2015,08,28,13,16,11.80
2015,08,28,13,17,13.70
2015,08,28,13,18,15.40
2015,08,28,13,19,12.70
2015,08,28,13,20,9.40
2015,08,28,13,21,10.00
2015,08,28,13,22,14.20
2015,08,28,13,23,17.60
2015,08,28,13,24,14.30
2015,08,28,13,25,10.50
2015,08,28,13,26,11.40
2015,08,28,13,27,15.50
2015,08,28,13,28,13.60
2015,08,28,13,29,15.80
2015,08,28,13,30,16.40
2015,08,28,13,31,9.00
2015,08,28,13,32,11.40
2015,08,28,13,33,15.50
2015,08,28,13,34,15.80
2015,08,28,13,35,15.90
2015,08,28,13,36,12.10
2015,08,28,13,37,11.50
2015,08,28,13,38,14.00
2015,08,28,13,39,7.10
2015,08,28,13,40,6.60
2015,08,28,13,41,14.10
2015,08,28,13,42,12.20
2015,08,28,13,43,14.90
2015,08,28,13,44,19.80
2015,08,28,13,45,8.60
2015,08,28,13,46,13.70
2015,08,28,13,47,7.90
2015,08,28,13,48,6.60
2015,08,28,13,49,7.20
2015,08,28,13,50,10.00
2015,08,28,13,51,9.70
2015,08,28,13,52,14.60
2015,08,28,13,53,9.50
2015,08,28,13,54,13.50
2015,08,28,13,55,14.60
2015,08,28,13,56,13.00
2015,08,28,13,57,12.80
2015,08,28,13,58,15.80
2015,08,28,13,59,10.10
2015,08,28,14,00,3.70
2015,08,28,14,01,9.20
2015,08,28,14,02,13.20
2015,08,28,14,03,7.90
2015,08,28,14,04,11.30
2015,08,28,14,05,10.00
2015,08,28,14,06,14.00
2015,08,28,14,07,10.80
2015,08,28,14,08,16.00
2015,08,28,14,09,11.60
2015,08,28,14,10,10.60
2015,08,28,14,11,4.30
2015,08,28,14,12,16.70
2015,08,28,14,13,13.60
2015,08,28,14,14,16.90
2015,08,28,14,15,11.30
2015,08,28,14,16,11.00
2015,08,28,14,17,10.40
2015,08,28,14,18,13.60
2015,08,28,14,19,8.60
2015,08,28,14,20,12.90
2015,08,28,14,21,12.70
2015,08,28,14,22,15.60
2015,08,28,14,23,11.00
2015,08,28,14,24,7.60
2015,08,28,14,25,10.60
2015,08,28,14,26,11.80
2015,08,28,14,27,14.90
2015,08,28,14,28,16.90
2015,08,28,14,29,14.40
2015,08,28,14,30,16.20
2015,08,28,14,31,15.30
2015,08,28,14,32,12.00
2015,08,28,14,33,9.60
2015,08,28,14,34,13.00
2015,08,28,14,35,11.30
2015,08,28,14,36,15.00
2015,08,28,14,37,11.30
2015,08,28,14,38,15.30
2015,08,28,14,39,13.00
2015,08,28,14,40,12.00
2015,08,28,14,41,11.40
2015,08,28,14,42,6.60
2015,08,28,14,43,1.00
2015,08,28,14,44,3.90
2015,08,28,14,45,3.00
2015,08,28,14,46,5.40
2015,08,28,14,47,3.60
2015,08,28,14,48,9.00
2015,08,28,14,49,5.90
2015,08,28,14,50,5.40
2015,08,28,14,51,9.00
2015,08,28,14,52,8.20
2015,08,28,14,53,11.30
2015,08,28,14,54,4.30
2015,08,28,14,55,7.60
2015,08,28,14,56,4.70
2015,08,28,14,57,6.60
2015,08,28,14,58,11.80
2015,08,28,14,59,10.00
2015,08,28,15,00,9.50
2015,08,28,15,01,13.90
2015,08,28,15,02,10.60
2015,08,28,15,03,9.70
2015,08,28,15,04,10.50
2015,08,28,15,05,15.80
2015,08,28,15,06,17.20
2015,08,28,15,07,20.90
2015,08,28,15,08,14.40
2015,08,28,15,09,15.40
2015,08,28,15,10,22.80
2015,08,28,15,11,17.20
2015,08,28,15,12,10.90
2015,08,28,15,13,3.20
2015,08,28,15,14,5.70
2015,08,28,15,15,9.20
2015,08,28,15,16,12.30
2015,08,28,15,17,13.50
2015,08,28,15,18,10.00
2015,08,28,15,19,3.90
2015,08,28,15,20,4.60
2015,08,28,15,21,8.30
2015,08,28,15,22,8.80
2015,08,28,15,23,17.00
2015,08,28,15,24,12.70
2015,08,28,15,25,10.80
2015,08,28,15,26,13.80
2015,08,28,15,27,12.60
2015,08,28,15,28,11.10
2015,08,28,15,29,7.10
2015,08,28,15,30,8.60
2015,08,28,15,31,4.90
2015,08,28,15,32,9.00
2015,08,28,15,33,5.90
2015,08,28,15,34,14.40
2015,08,28,15,35,13.20
2015,08,28,15,36,16.90
2015,08,28,15,37,9.70
2015,08,28,15,38,7.20
2015,08,28,15,39,8.00
2015,08,28,15,40,5.70
2015,08,28,15,41,10.40
2015,08,28,15,42,8.40
2015,08,28,15,43,13.40
2015,08,28,15,44,15.70
2015,08,28,15,45,12.30
2015,08,28,15,46,11.90
2015,08,28,15,47,10.20
2015,08,28,15,48,10.40
2015,08,28,15,49,17.00
2015,08,28,15,50,16.50
2015,08,28,15,51,10.80
2015,08,28,15,52,14.20
2015,08,28,15,53,10.90
2015,08,28,15,54,10.70
2015,08,28,15,55,7.40
2015,08,28,15,56,7.60
2015,08,28,15,57,7.40
2015,08,28,15,58,11.00
2015,08,28,15,59,13.80
2015,08,28,16,00,10.20
2015,08,28,16,01,10.10
2015,08,28,16,02,8.90
2015,08,28,16,03,8.10
2015,08,28,16,04,8.60
2015,08,28,16,05,18.20
2015,08,28,16,06,14.30
2015,08,28,16,07,11.60
2015,08,28,16,08,15.20
2015,08,28,16,09,12.10
2015,08,28,16,10,10.60
2015,08,28,16,11,10.30
2015,08,28,16,12,8.70
2015,08,28,16,13,10.60
2015,08,28,16,14,12.80
2015,08,28,16,15,12.40
2015,08,28,16,16,13.80
2015,08,28,16,17,15.50
2015,08,28,16,18,11.80
2015,08,28,16,19,10.50
2015,08,28,16,20,14.40
2015,08,28,16,21,14.30
2015,08,28,16,22,10.10
2015,08,28,16,23,15.00
2015,08,28,16,24,7.60
2015,08,28,16,25,11.60
2015,08,28,16,26,15.50
2015,08,28,16,27,6.90
2015,08,28,16,28,9.90
2015,08,28,16,29,12.00
2015,08,28,16,30,11.90
2015,08,28,16,31,16.20
2015,08,28,16,32,14.00
2015,08,28,16,33,12.90
2015,08,28,16,34,9.60
2015,08,28,16,35,9.20
2015,08,28,16,36,9.60
2015,08,28,16,37,13.00
2015,08,28,16,38,10.90
2015,08,28,16,39,9.90
2015,08,28,16,40,9.90
2015,08,28,16,41,9.70
2015,08,28,16,42,8.40
2015,08,28,16,43,13.00
2015,08,28,16,44,13.30
2015,08,28,16,45,8.90
2015,08,28,16,46,8.20
2015,08,28,16,47,12.30
2015,08,28,16,48,11.60
2015,08,28,16,49,9.40
2015,08,28,16,50,4.30
2015,08,28,16,51,8.90
2015,08,28,16,52,12.60
2015,08,28,16,53,13.80
2015,08,28,16,54,8.00
2015,08,28,16,55,13.20
2015,08,28,16,56,6.20
2015,08,28,16,57,9.70
2015,08,28,16,58,11.40
2015,08,28,16,59,15.80
2015,08,28,17,00,11.80
2015,08,28,17,01,11.40
2015,08,28,17,02,9.10
2015,08,28,17,03,13.80
2015,08,28,17,04,15.10
2015,08,28,17,05,13.80
2015,08,28,17,06,10.10
2015,08,28,17,07,11.30
2015,08,28,17,08,9.70
2015,08,28,17,09,9.70
2015,08,28,17,10,12.40
2015,08,28,17,11,10.70
2015,08,28,17,12,8.90
2015,08,28,17,13,12.60
2015,08,28,17,14,15.10
2015,08,28,17,15,13.40
2015,08,28,17,16,13.40
2015,08,28,17,17,12.20
2015,08,28,17,18,12.60
2015,08,28,17,19,12.80
2015,08,28,17,20,8.10
2015,08,28,17,21,11.40
2015,08,28,17,22,11.00
2015,08,28,17,23,10.90
2015,08,28,17,24,11.70
2015,08,28,17,25,11.40
2015,08,28,17,26,16.70
2015,08,28,17,27,11.60
2015,08,28,17,28,10.90
2015,08,28,17,29,9.90
2015,08,28,17,30,14.30
2015,08,28,17,31,7.50
2015,08,28,17,32,1.80
2015,08,28,17,33,11.30
2015,08,28,17,34,8.40
2015,08,28,17,35,9.90
2015,08,28,17,36,6.90
2015,08,28,17,37,12.10
2015,08,28,17,38,11.50
2015,08,28,17,39,10.80
2015,08,28,17,40,10.60
2015,08,28,17,41,11.70
2015,08,28,17,42,11.40
2015,08,28,17,43,3.50
2015,08,28,17,44,8.80
2015,08,28,17,45,9.70
2015,08,28,17,46,5.10
2015,08,28,17,47,13.00
2015,08,28,17,48,13.80
2015,08,28,17,49,11.40
2015,08,28,17,50,10.80
2015,08,28,17,51,4.20
2015,08,28,17,52,6.00
2015,08,28,17,53,12.70
2015,08,28,17,54,15.50
2015,08,28,17,55,10.80
2015,08,28,17,56,0.80
2015,08,28,17,57,12.60
2015,08,28,17,58,14.70
2015,08,28,17,59,11.00
2015,08,28,18,00,15.20
2015,08,28,18,01,9.60
2015,08,28,18,02,7.80
2015,08,28,18,03,10.40
2015,08,28,18,04,10.50
2015,08,28,18,05,13.00
2015,08,28,18,06,10.10
2015,08,28,18,07,10.70
2015,08,28,18,08,11.00
2015,08,28,18,09,11.60
2015,08,28,18,10,8.50
2015,08,28,18,11,11.90
2015,08,28,18,12,6.00
2015,08,28,18,13,11.50
2015,08,28,18,14,10.60
2015,08,28,18,15,13.10
2015,08,28,18,16,12.10
2015,08,28,18,17,15.10
2015,08,28,18,18,9.40
2015,08,28,18,19,14.90
2015,08,28,18,20,7.00
2015,08,28,18,21,15.40
2015,08,28,18,22,10.70
2015,08,28,18,23,7.90
2015,08,28,18,24,2.70
2015,08,28,18,25,8.80
2015,08,28,18,26,10.60
2015,08,28,18,27,8.20
2015,08,28,18,28,8.00
2015,08,28,18,29,9.50
2015,08,28,18,30,6.90
2015,08,28,18,31,7.50
2015,08,28,18,32,10.40
2015,08,28,18,33,6.10
2015,08,28,18,34,7.20
2015,08,28,18,35,6.30
2015,08,28,18,36,7.40
2015,08,28,18,37,4.80
2015,08,28,18,38,8.00
2015,08,28,18,39,7.90
2015,08,28,18,40,8.10
2015,08,28,18,41,9.90
2015,08,28,18,42,7.60
2015,08,28,18,43,8.00
2015,08,28,18,44,9.30
2015,08,28,18,45,6.80
2015,08,28,18,46,8.40
2015,08,28,18,47,7.10
2015,08,28,18,48,10.60
2015,08,28,18,49,8.80
2015,08,28,18,50,6.40
2015,08,28,18,51,9.30
2015,08,28,18,52,3.00
2015,08,28,18,53,9.50
2015,08,28,18,54,8.90
2015,08,28,18,55,3.50
2015,08,28,18,56,6.70
2015,08,28,18,57,4.20
2015,08,28,18,58,10.80
2015,08,28,18,59,8.30
2015,08,28,19,00,9.70
2015,08,28,19,01,8.10
2015,08,28,19,02,14.30
2015,08,28,19,03,12.60
2015,08,28,19,04,6.90
2015,08,28,19,05,6.50
2015,08,28,19,06,8.10
2015,08,28,19,07,6.40
2015,08,28,19,08,11.40
2015,08,28,19,09,10.80
2015,08,28,19,10,9.70
2015,08,28,19,11,9.50
2015,08,28,19,12,10.30
2015,08,28,19,13,6.00
2015,08,28,19,14,7.30
2015,08,28,19,15,7.40
2015,08,28,19,16,4.10
2015,08,28,19,17,6.50
2015,08,28,19,18,7.70
2015,08,28,19,19,3.20
2015,08,28,19,20,6.10
2015,08,28,19,21,4.40
2015,08,28,19,22,6.00
2015,08,28,19,23,6.70
2015,08,28,19,24,7.20
2015,08,28,19,25,4.60
2015,08,28,19,26,3.10
2015,08,28,19,27,0.40
2015,08,28,19,28,3.40
2015,08,28,19,29,7.20
2015,08,28,19,30,3.80
2015,08,28,19,31,3.00
2015,08,28,19,32,5.30
2015,08,28,19,33,2.80
2015,08,28,19,34,2.10
2015,08,28,19,35,0.20
2015,08,28,19,36,0.70
2015,08,28,19,37,0.00
2015,08,28,19,38,2.10
2015,08,28,19,39,0.20
2015,08,28,19,40,0.00
2015,08,28,19,41,0.10
2015,08,28,19,42,1.00
2015,08,28,19,43,0.20
2015,08,28,19,44,2.80
2015,08,28,19,45,1.10
2015,08,28,19,46,2.00
2015,08,28,19,47,0.50
2015,08,28,19,48,4.50
2015,08,28,19,49,6.80
2015,08,28,19,50,6.10
2015,08,28,19,51,3.90
2015,08,28,19,52,2.80
2015,08,28,19,53,0.10
2015,08,28,19,54,0.10
2015,08,28,19,55,0.00
2015,08,28,19,56,0.00
2015,08,28,19,57,0.00
2015,08,28,19,58,0.00
2015,08,28,19,59,0.00
2015,08,28,20,00,0.00
2015,08,28,20,01,0.00
2015,08,28,20,02,0.10
2015,08,28,20,03,0.00
2015,08,28,20,04,0.00
2015,08,28,20,05,0.00
2015,08,28,20,06,0.00
2015,08,28,20,07,0.00
2015,08,28,20,08,0.00
2015,08,28,20,09,0.00
2015,08,28,20,10,0.00
2015,08,28,20,11,0.00
2015,08,28,20,12,0.00
2015,08,28,20,13,0.10
2015,08,28,20,14,0.00
2015,08,28,20,15,0.10
2015,08,28,20,16,0.10
2015,08,28,20,17,1.40
2015,08,28,20,18,3.10
2015,08,28,20,19,0.00
2015,08,28,20,20,0.00
2015,08,28,20,21,0.00
2015,08,28,20,22,0.00
2015,08,28,20,23,0.00
2015,08,28,20,24,0.00
2015,08,28,20,25,0.00
2015,08,28,20,26,0.00
2015,08,28,20,27,0.00
2015,08,28,20,28,0.00
2015,08,28,20,29,0.00
2015,08,28,20,30,0.00
2015,08,28,20,31,0.00
2015,08,28,20,32,0.00
2015,08,28,20,33,0.00
2015,08,28,20,34,0.00
2015,08,28,20,35,0.00
2015,08,28,20,36,0.00
2015,08,28,20,37,0.00
2015,08,28,20,38,0.00
2015,08,28,20,39,0.00
2015,08,28,20,40,0.00
2015,08,28,20,41,0.00
2015,08,28,20,42,0.00
2015,08,28,20,43,0.10
2015,08,28,20,44,0.00
2015,08,28,20,45,0.00
2015,08,28,20,46,0.00
2015,08,28,20,47,0.00
2015,08,28,20,48,0.00
2015,08,28,20,49,0.00
2015,08,28,20,50,0.00
2015,08,28,20,51,0.00
2015,08,28,20,52,0.00
2015,08,28,20,53,0.00
2015,08,28,20,54,0.00
2015,08,28,20,55,0.00
2015,08,28,20,56,0.00
2015,08,28,20,57,0.00
2015,08,28,20,58,0.00
2015,08,28,20,59,0.00
2015,08,28,21,00,0.00
2015,08,28,21,01,0.00
2015,08,28,21,02,0.00
2015,08,28,21,03,0.00
2015,08,28,21,04,0.00
2015,08,28,21,05,0.00
2015,08,28,21,06,0.00
2015,08,28,21,07,0.00
2015,08,28,21,08,0.00
2015,08,28,21,09,0.00
2015,08,28,21,10,0.00
2015,08,28,21,11,0.00
2015,08,28,21,12,0.00
2015,08,28,21,13,0.00
2015,08,28,21,14,0.00
2015,08,28,21,15,0.00
2015,08,28,21,16,0.00
2015,08,28,21,17,0.00
2015,08,28,21,18,0.00
2015,08,28,21,19,0.10
2015,08,28,21,20,0.00
2015,08,28,21,21,0.00
2015,08,28,21,22,0.00
2015,08,28,21,23,0.00
2015,08,28,21,24,0.00
2015,08,28,21,25,0.00
2015,08,28,21,26,0.00
2015,08,28,21,27,0.00
2015,08,28,21,28,0.00
2015,08,28,21,29,0.00
2015,08,28,21,30,0.00
2015,08,28,21,31,0.00
2015,08,28,21,32,0.00
2015,08,28,21,33,0.00
2015,08,28,21,34,0.00
2015,08,28,21,35,0.00
2015,08,28,21,36,0.00
2015,08,28,21,37,0.00
2015,08,28,21,38,0.00
2015,08,28,21,39,0.00
2015,08,28,21,40,0.00
2015,08,28,21,41,0.00
2015,08,28,21,42,0.00
2015,08,28,21,43,0.00
2015,08,28,21,44,0.00
2015,08,28,21,45,0.00
2015,08,28,21,46,0.00
2015,08,28,21,47,0.00
2015,08,28,21,48,0.00
2015,08,28,21,49,0.00
2015,08,28,21,50,0.00
2015,08,28,21,51,0.00
2015,08,28,21,52,0.00
2015,08,28,21,53,0.00
2015,08,28,21,54,0.00
2015,08,28,21,55,0.00
2015,08,28,21,56,0.00
2015,08,28,21,57,0.00
2015,08,28,21,58,0.00
2015,08,28,21,59,0.00
2015,08,28,22,00,0.00
2015,08,28,22,01,0.00
2015,08,28,22,02,0.00
2015,08,28,22,03,0.00
2015,08,28,22,04,0.00
2015,08,28,22,05,0.00
2015,08,28,22,06,0.10
2015,08,28,22,07,0.00
2015,08,28,22,08,0.00
2015,08,28,22,09,0.00
2015,08,28,22,10,0.00
2015,08,28,22,11,0.00
2015,08,28,22,12,0.00
2015,08,28,22,13,0.00
2015,08,28,22,14,0.00
2015,08,28,22,15,0.00
2015,08,28,22,16,0.00
2015,08,28,22,17,0.00
2015,08,28,22,18,0.00
2015,08,28,22,19,0.00
2015,08,28,22,20,0.00
2015,08,28,22,21,0.00
2015,08,28,22,22,0.00
2015,08,28,22,23,0.00
2015,08,28,22,24,0.00
2015,08,28,22,25,0.00
2015,08,28,22,26,0.00
2015,08,28,22,27,0.00
2015,08,28,22,28,0.00
2015,08,28,22,29,0.00
2015,08,28,22,30,0.10
2015,08,28,22,31,0.00
2015,08,28,22,32,0.00
2015,08,28,22,33,0.00
2015,08,28,22,34,0.00
2015,08,28,22,35,0.00
2015,08,28,22,36,0.00
2015,08,28,22,37,0.00
2015,08,28,22,38,0.00
2015,08,28,22,39,0.00
2015,08,28,22,40,0.00
2015,08,28,22,41,0.00
2015,08,28,22,42,0.00
2015,08,28,22,43,0.00
2015,08,28,22,44,0.00
2015,08,28,22,45,0.00
2015,08,28,22,46,0.00
2015,08,28,22,47,0.00
2015,08,28,22,48,0.00
2015,08,28,22,49,0.00
2015,08,28,22,50,0.00
2015,08,28,22,51,0.00
2015,08,28,22,52,0.00
2015,08,28,22,53,0.00
2015,08,28,22,54,0.00
2015,08,28,22,55,0.00
2015,08,28,22,56,0.00
2015,08,28,22,57,0.00
2015,08,28,22,58,0.00
2015,08,28,22,59,0.00
2015,08,28,23,00,0.00
2015,08,28,23,01,0.00
2015,08,28,23,02,0.00
2015,08,28,23,03,0.00
2015,08,28,23,04,0.00
2015,08,28,23,05,0.00
2015,08,28,23,06,0.00
2015,08,28,23,07,0.00
2015,08,28,23,08,0.00
2015,08,28,23,09,0.00
2015,08,28,23,10,0.00
2015,08,28,23,11,0.00
2015,08,28,23,12,0.00
2015,08,28,23,13,0.00
2015,08,28,23,14,0.00
2015,08,28,23,15,0.00
2015,08,28,23,16,0.00
2015,08,28,23,17,0.00
2015,08,28,23,18,0.00
2015,08,28,23,19,0.00
2015,08,28,23,20,0.00
2015,08,28,23,21,0.00
2015,08,28,23,22,0.00
2015,08,28,23,23,0.00
2015,08,28,23,24,0.10
2015,08,28,23,25,0.00
2015,08,28,23,26,5.90
2015,08,28,23,27,1.90
2015,08,28,23,28,0.10
2015,08,28,23,29,0.00
2015,08,28,23,30,0.00